QIANFAN-77

Satellite information

Favourite Embed

Satellite Type and Status

PAYLOADIN ORBIT

Key statistics

Satellite QIANFAN-77 at a glance.

Uptime

225

Days in orbit

Revolutions

≈ 14.0

Per day

Orbit

LEO

Low Earth Orbit

Inclination

89.0

Latest

Satellite identification and parameters

Extended collection of information and parameters for QIANFAN-77.

Object identification

Identified? True

Debris? False

Object name: QIANFAN-77

International designator: 2025-046E

Object number (NORAD): 63163

Object ID (CCSDS): 63163

Country: PEOPLES REPUBLIC OF CHINA (PRC)

Current information (Y/N): Y

RCS size: LARGE

Orbital parameters

Period: 103.146 minutes

Inclination: 88.9779 deg

SMA: 7285.554 km

Apoapsis: 916.847 km

Periapsis: 897.991 km

RAAN: 323.9306 deg

Eccentricy: 0.0012941

Argument of periapsis: 237.6898 deg

Mean anomaly: 122.3025 deg

Mean motion: 13.96075432 rev/day

Mean motion (dot): 0.00000385 rev/day2

B* drag term: 0.00027101 1/REarth

Two-line elements (TLE)

Creation date: Oct. 22, 2025, 12:16 a.m.

Reference frame: TEME

Reference center: EARTH

Epoch: Oct. 21, 2025, 8:46 p.m. UTC

TLE line 0: 0 QIANFAN-77

TLE line 1: 1 63163U 25046E 25294.86562720 .00000385 00000-0 27101-3 0 9994

TLE line 2: 2 63163 88.9779 323.9306 0012941 237.6898 122.3025 13.96075432 41218

Live tracking on map

Real-time ground track for satellite QIANFAN-77.

In-orbit conjunctions

There are no conjunctions computed for QIANFAN-77, at the moment. Check back to stay up to date, as we update our databases every day.

Go to all conjunctions

Associated space launch

18 Low Earth Orbit communication satellites with Ku, Q and V band payloads for the G60 constellation operated by Shanghai Spacecom Satellite Technology (SSST) with funding backed by the Shanghai local government. Initial constellation will consist of 1296 satellites by 2027 with long term plans to expand it to 12000 satellites. First launch from the Wenchang Commercial Space Launch Site's LC-1.

QIANFAN-77 was lifted into orbit during the mission ‘Long March 8 | G60 Polar Group 05’, on board a Long March 8 space rocket.

The launch took place on March 11, 2025, 4:38 p.m. from Commercial LC-1.

For more information about the launch, click the button.

Launch to space Long March 8 | G60 Polar Group 05
Long March 8 | G60 Polar Group 05

Agency: N/A

Status: Launch Successful

Launch date: March 11, 2025, 4:38 p.m. UTC

Rocket: Long March 8

Launch pad: Commercial LC-1

Location: Wenchang Space Launch Site, People's Republic of China

...

Latest news about this satellite

News about space launch
Long March 8 launches Thousand Sails satellites from commercial spaceport

HELSINKI — A new group of 18 satellites entered orbit Tuesday for the Thousand Sails constellation with the first launch from a new commercial launch pad. A Long March 8 […] The post Long March 8 launches Thousand Sails satellites from commercial spacepo...

News about space launch
Launch Roundup: SpaceX, Rocket Lab, and Firefly set to launch amid busy launch manifest

This week, a busy launch manifest will see SpaceX launch the Crew-10 and Starlink Group… The post Launch Roundup: SpaceX, Rocket Lab, and Firefly set to launch amid busy launch manifest appeared first on NASASpaceFlight.com.


Newsletter sign-up

Weekly statistics, charts and insights to help you stay on top of the space industry.